2022-01-24 00:03:11 r, 19.91m,0000000001Hz,0000502264c,0000001.090s,-005.9C,00002191
2022-01-24 00:13:10 r, 19.83m,0000000001Hz,0000464617c,0000001.008s,-006.5C,00002191
2022-01-24 00:23:09 r, 19.74m,0000000001Hz,0000429175c,0000000.931s,-006.5C,00002191
2022-01-24 00:33:12 r, 19.65m,0000000002Hz,0000396207c,0000000.860s,-006.8C,00002191
2022-01-24 00:43:10 r, 19.56m,0000000001Hz,0000363203c,0000000.788s,-007.1C,00002191
2022-01-24 00:53:09 r, 19.48m,0000000001Hz,0000336952c,0000000.731s,-006.8C,00002191
2022-01-24 01:03:12 r, 19.40m,0000000002Hz,0000313875c,0000000.681s,-007.1C,00002191
2022-01-24 01:13:10 r, 19.33m,0000000001Hz,0000294776c,0000000.640s,-007.1C,00002191
2022-01-24 01:23:09 r, 19.25m,0000000002Hz,0000272573c,0000000.592s,-007.5C,00002191
2022-01-24 01:33:10 r, 19.19m,0000000002Hz,0000258273c,0000000.560s,-007.8C,00002191
2022-01-24 01:43:11 r, 19.13m,0000000002Hz,0000244901c,0000000.531s,-008.1C,00002191
2022-01-24 01:53:09 r, 19.07m,0000000002Hz,0000232741c,0000000.505s,-008.4C,00002191
2022-01-24 02:03:09 r, 19.18m,0000000002Hz,0000257296c,0000000.558s,-008.4C,00002191
2022-01-24 02:13:12 r, 19.00m,0000000003Hz,0000218741c,0000000.475s,-008.4C,00002191
2022-01-24 02:23:09 r, 18.97m,0000000002Hz,0000212444c,0000000.461s,-009.1C,00002191
2022-01-24 02:33:11 r, 18.88m,0000000002Hz,0000195455c,0000000.424s,-009.4C,00002191
2022-01-24 02:43:10 r, 19.08m,0000000002Hz,0000235744c,0000000.512s,-009.4C,00002191
2022-01-24 02:53:09 r, 19.41m,0000000001Hz,0000320708c,0000000.696s,-009.7C,00002191
2022-01-24 03:03:12 r, 18.76m,0000000003Hz,0000175707c,0000000.381s,-010.0C,00002191
2022-01-24 03:13:10 r, 18.73m,0000000002Hz,0000170644c,0000000.370s,-010.0C,00002191
2022-01-24 03:23:09 r, 18.70m,0000000003Hz,0000166085c,0000000.360s,-010.4C,00002191
2022-01-24 03:33:10 r, 18.68m,0000000002Hz,0000163507c,0000000.355s,-010.4C,00002191
2022-01-24 03:43:10 r, 18.65m,0000000003Hz,0000158582c,0000000.344s,-010.0C,00002191
2022-01-24 03:53:09 r, 18.66m,0000000003Hz,0000159037c,0000000.345s,-010.0C,00002191
2022-01-24 04:03:10 r, 18.78m,0000000003Hz,0000178243c,0000000.387s,-009.7C,00002191
2022-01-24 04:13:10 r, 19.30m,0000000002Hz,0000287849c,0000000.625s,-009.7C,00002191
2022-01-24 04:23:09 r, 18.96m,0000000002Hz,0000211240c,0000000.458s,-009.7C,00002191
2022-01-24 04:33:11 r, 18.54m,0000000003Hz,0000143771c,0000000.312s,-010.0C,00002191
2022-01-24 04:43:10 r, 18.73m,0000000003Hz,0000170088c,0000000.369s,-010.7C,00002191
2022-01-24 04:53:09 r, 19.24m,0000000002Hz,0000273619c,0000000.594s,-011.0C,00002191
2022-01-24 05:03:12 r, 18.98m,0000000002Hz,0000215186c,0000000.467s,-011.7C,00002191
2022-01-24 05:13:10 r, 18.51m,0000000004Hz,0000140287c,0000000.304s,-012.0C,00002191
2022-01-24 05:23:09 r, 18.82m,0000000002Hz,0000184452c,0000000.400s,-012.0C,00002191
2022-01-24 05:33:12 r, 18.68m,0000000003Hz,0000162188c,0000000.352s,-012.3C,00002191
2022-01-24 05:43:10 r, 18.56m,0000000003Hz,0000146197c,0000000.317s,-012.6C,00002191
2022-01-24 05:53:09 r, 18.51m,0000000003Hz,0000138692c,0000000.301s,-012.9C,00002191
2022-01-24 06:03:10 r, 18.51m,0000000004Hz,0000139811c,0000000.303s,-013.3C,00002191
2022-01-24 06:13:11 r, 18.52m,0000000004Hz,0000140999c,0000000.306s,-013.3C,00002191
2022-01-24 06:23:09 r, 18.59m,0000000003Hz,0000149505c,0000000.324s,-013.3C,00002191
2022-01-24 06:33:11 r, 18.53m,0000000003Hz,0000143040c,0000000.310s,-013.3C,00002191
2022-01-24 06:43:10 r, 18.53m,0000000003Hz,0000142261c,0000000.309s,-012.9C,00002191
2022-01-24 06:53:10 r, 18.44m,0000000004Hz,0000131040c,0000000.284s,-012.9C,00002191
2022-01-24 07:03:10 r, 18.06m,0000000005Hz,0000092158c,0000000.200s,-012.9C,00002191
2022-01-24 07:13:12 r, 17.12m,0000000012Hz,0000038754c,0000000.084s,-012.9C,00002191
2022-01-24 07:23:09 r, 15.64m,0000000047Hz,0000009889c,0000000.021s,-013.3C,00002191
2022-01-24 07:33:09 r, 13.83m,0000000248Hz,0000000000c,0000000.000s,-013.3C,00002191
2022-01-24 07:43:09 r, 11.85m,0000001531Hz,0000000000c,0000000.000s,-013.6C,00002191
2022-01-24 07:53:09 r, 10.03m,0000008303Hz,0000000000c,0000000.000s,-013.6C,00002191
2022-01-24 08:03:12 r, 08.59m,0000030967Hz,0000000000c,0000000.000s,-013.6C,00002191
2022-01-24 08:13:10 r, 07.57m,0000079826Hz,0000000000c,0000000.000s,-013.9C,00002191
2022-01-24 08:23:09 r, 06.81m,0000158725Hz,0000000000c,0000000.000s,-013.9C,00002191
2022-01-24 08:33:10 r, 06.12m,0000302294Hz,0000000000c,0000000.000s,-013.6C,00002191
2022-01-24 08:43:12 r, 00.00m,0000485796Hz,0000000000c,0000000.000s,-012.9C,00002191
2022-01-24 08:53:09 r, 00.00m,0000600011Hz,0000000000c,0000000.000s,-011.7C,00002191
2022-01-24 09:03:11 r, 00.00m,0000600028Hz,0000000000c,0000000.000s,-010.0C,00002191
2022-01-24 09:13:10 r, 00.00m,0000599864Hz,0000000000c,0000000.000s,-008.8C,00002191
2022-01-24 09:23:09 r, 00.00m,0000599803Hz,0000000000c,0000000.000s,-007.8C,00002191
2022-01-24 09:33:12 r, 00.00m,0000599764Hz,0000000000c,0000000.000s,-007.1C,00002191
2022-01-24 09:43:10 r, 00.00m,0000599661Hz,0000000000c,0000000.000s,-005.9C,00002191
2022-01-24 09:53:09 r, 00.00m,0000599558Hz,0000000000c,0000000.000s,-005.5C,00002191
2022-01-24 10:03:09 r, 00.00m,0000599468Hz,0000000000c,0000000.000s,-005.2C,00002191
2022-01-24 10:13:10 r, 00.00m,0000599459Hz,0000000000c,0000000.000s,-004.9C,00002191
2022-01-24 10:23:12 r, 00.00m,0000599475Hz,0000000000c,0000000.000s,-004.2C,00002191
2022-01-24 10:33:09 r, 00.00m,0000599333Hz,0000000000c,0000000.000s,-003.9C,00002191
2022-01-24 10:43:11 r, 00.00m,0000599427Hz,0000000000c,0000000.000s,-003.6C,00002191
2022-01-24 10:53:10 r, 00.00m,0000599235Hz,0000000000c,0000000.000s,-003.3C,00002191
2022-01-24 11:03:09 r, 00.00m,0000599075Hz,0000000000c,0000000.000s,-002.3C,00002191
2022-01-24 11:13:12 r, 00.00m,0000599208Hz,0000000000c,0000000.000s,-002.6C,00002191
2022-01-24 11:23:10 r, 00.00m,0000599134Hz,0000000000c,0000000.000s,-003.3C,00002191
2022-01-24 11:33:09 r, 00.00m,0000599261Hz,0000000000c,0000000.000s,-003.6C,00002191
2022-01-24 11:43:12 r, 00.00m,0000599314Hz,0000000000c,0000000.000s,-003.6C,00002191
2022-01-24 11:53:10 r, 00.00m,0000599169Hz,0000000000c,0000000.000s,-002.6C,00002191
2022-01-24 12:03:09 r, 00.00m,0000599049Hz,0000000000c,0000000.000s,-002.3C,00002191
2022-01-24 12:13:10 r, 00.00m,0000599110Hz,0000000000c,0000000.000s,-002.3C,00002191
2022-01-24 12:23:11 r, 00.00m,0000599242Hz,0000000000c,0000000.000s,-002.6C,00002191
2022-01-24 12:33:09 r, 00.00m,0000599141Hz,0000000000c,0000000.000s,-001.3C,00002191
2022-01-24 12:43:11 r, 00.00m,0000599198Hz,0000000000c,0000000.000s,-003.3C,00002191
2022-01-24 12:53:10 r, 00.00m,0000599379Hz,0000000000c,0000000.000s,-005.2C,00002191
2022-01-24 13:03:09 r, 00.00m,0000599516Hz,0000000000c,0000000.000s,-006.2C,00002191
2022-01-24 13:13:10 r, 00.00m,0000599495Hz,0000000000c,0000000.000s,-006.8C,00002191
2022-01-24 13:23:12 r, 00.00m,0000599610Hz,0000000000c,0000000.000s,-007.1C,00002191
2022-01-24 13:33:09 r, 00.00m,0000599687Hz,0000000000c,0000000.000s,-007.5C,00002191
2022-01-24 13:43:12 r, 00.00m,0000599679Hz,0000000000c,0000000.000s,-007.5C,00002191
2022-01-24 13:53:10 r, 00.00m,0000599520Hz,0000000000c,0000000.000s,-007.1C,00002191
2022-01-24 14:03:09 r, 00.00m,0000599549Hz,0000000000c,0000000.000s,-007.1C,00002191
2022-01-24 14:13:12 r, 00.00m,0000599596Hz,0000000000c,0000000.000s,-007.1C,00002191
2022-01-24 14:23:10 r, 00.00m,0000599565Hz,0000000000c,0000000.000s,-007.1C,00002191
2022-01-24 14:33:09 r, 00.00m,0000599634Hz,0000000000c,0000000.000s,-007.1C,00002191
2022-01-24 14:43:10 r, 00.00m,0000599673Hz,0000000000c,0000000.000s,-007.1C,00002191
2022-01-24 14:53:12 r, 00.00m,0000599621Hz,0000000000c,0000000.000s,-007.5C,00002191
2022-01-24 15:03:09 r, 00.00m,0000599627Hz,0000000000c,0000000.000s,-007.1C,00002191
2022-01-24 15:13:11 r, 00.00m,0000599679Hz,0000000000c,0000000.000s,-007.5C,00002191
2022-01-24 15:23:10 r, 00.00m,0000599706Hz,0000000000c,0000000.000s,-007.8C,00002191
2022-01-24 15:33:09 r, 00.00m,0000599580Hz,0000000000c,0000000.000s,-007.1C,00002191
2022-01-24 15:43:12 r, 00.00m,0000599461Hz,0000000000c,0000000.000s,-005.5C,00002191
2022-01-24 15:53:10 r, 00.00m,0000599323Hz,0000000000c,0000000.000s,-004.6C,00002191
2022-01-24 16:03:09 r, 00.00m,0000599352Hz,0000000000c,0000000.000s,-004.2C,00002191
2022-01-24 16:13:12 r, 00.00m,0000599341Hz,0000000000c,0000000.000s,-004.2C,00002191
2022-01-24 16:23:10 r, 00.00m,0000599335Hz,0000000000c,0000000.000s,-004.2C,00002191
2022-01-24 16:33:09 r, 00.00m,0000599450Hz,0000000000c,0000000.000s,-004.9C,00002191
2022-01-24 16:43:10 r, 00.00m,0000411037Hz,0000000000c,0000000.000s,-005.9C,00002191
2022-01-24 16:53:11 r, 06.57m,0000198900Hz,0000000000c,0000000.000s,-006.8C,00002191
2022-01-24 17:03:09 r, 07.18m,0000113247Hz,0000000000c,0000000.000s,-008.4C,00002191
2022-01-24 17:13:11 r, 08.01m,0000052921Hz,0000000000c,0000000.000s,-009.7C,00002191
2022-01-24 17:23:10 r, 09.21m,0000017492Hz,0000000000c,0000000.000s,-010.7C,00002191
2022-01-24 17:33:09 r, 10.87m,0000003796Hz,0000000000c,0000000.000s,-011.3C,00002191
2022-01-24 17:43:10 r, 12.89m,0000000590Hz,0000000000c,0000000.000s,-012.0C,00002191
2022-01-24 17:53:12 r, 14.83m,0000000099Hz,0000004680c,0000000.010s,-012.0C,00002191
2022-01-24 18:03:09 r, 16.59m,0000000020Hz,0000023645c,0000000.051s,-012.3C,00002191
2022-01-24 18:13:12 r, 18.08m,0000000004Hz,0000094134c,0000000.204s,-012.3C,00002191
2022-01-24 18:23:10 r, 19.19m,0000000002Hz,0000259482c,0000000.563s,-012.9C,00002191
2022-01-24 18:33:09 r, 19.74m,0000000001Hz,0000432042c,0000000.938s,-013.3C,00002191
2022-01-24 18:43:09 r, 19.93m,0000000001Hz,0000509696c,0000001.106s,-013.3C,00002191
2022-01-24 18:53:10 r, 19.97m,0000000001Hz,0000530815c,0000001.152s,-013.3C,00002191
2022-01-24 19:03:09 r, 19.98m,0000000001Hz,0000535705c,0000001.163s,-013.6C,00002191
2022-01-24 19:13:10 r, 19.98m,0000000001Hz,0000533737c,0000001.158s,-013.3C,00002191
2022-01-24 19:23:12 r, 19.98m,0000000001Hz,0000536551c,0000001.164s,-013.3C,00002191
2022-01-24 19:33:09 r, 19.98m,0000000001Hz,0000539750c,0000001.171s,-013.3C,00002191
2022-01-24 19:43:11 r, 19.98m,0000000001Hz,0000540446c,0000001.173s,-013.3C,00002191
2022-01-24 19:53:10 r, 19.98m,0000000001Hz,0000538448c,0000001.169s,-012.9C,00002191
2022-01-24 20:03:09 r, 20.00m,0000000001Hz,0000545168c,0000001.183s,-013.3C,00002191
2022-01-24 20:13:12 r, 20.00m,0000000001Hz,0000547176c,0000001.187s,-013.6C,00002191
2022-01-24 20:23:10 r, 20.01m,0000000001Hz,0000549316c,0000001.192s,-013.6C,00002191
2022-01-24 20:33:09 r, 20.01m,0000000001Hz,0000551878c,0000001.198s,-013.6C,00002191
2022-01-24 20:43:12 r, 20.01m,0000000000Hz,0000552068c,0000001.198s,-013.9C,00002191
2022-01-24 20:53:10 r, 20.01m,0000000001Hz,0000549857c,0000001.193s,-013.9C,00002191
2022-01-24 21:03:09 r, 20.02m,0000000001Hz,0000554148c,0000001.203s,-014.2C,00002191
2022-01-24 21:13:10 r, 20.04m,0000000000Hz,0000566441c,0000001.229s,-013.9C,00002191
2022-01-24 21:23:11 r, 20.03m,0000000001Hz,0000561755c,0000001.219s,-013.9C,00002191
2022-01-24 21:33:09 r, 20.04m,0000000001Hz,0000567149c,0000001.231s,-013.9C,00002191
2022-01-24 21:43:11 r, 20.04m,0000000001Hz,0000569324c,0000001.236s,-013.9C,00002191
2022-01-24 21:53:10 r, 20.05m,0000000001Hz,0000569458c,0000001.236s,-013.9C,00002191
2022-01-24 22:03:09 r, 20.05m,0000000001Hz,0000572166c,0000001.242s,-013.6C,00002191
2022-01-24 22:13:10 r, 20.05m,0000000001Hz,0000574863c,0000001.248s,-013.6C,00002191
2022-01-24 22:23:12 r, 20.07m,0000000000Hz,0000581896c,0000001.263s,-013.6C,00002191
2022-01-24 22:33:09 r, 20.08m,0000000001Hz,0000587437c,0000001.275s,-013.9C,00002191
2022-01-24 22:43:09 r, 20.09m,0000000001Hz,0000592181c,0000001.285s,-013.9C,00002191
2022-01-24 22:53:10 r, 20.09m,0000000001Hz,0000594910c,0000001.291s,-014.2C,00002191
2022-01-24 23:03:09 r, 20.10m,0000000001Hz,0000599011c,0000001.300s,-014.6C,00002191
2022-01-24 23:13:10 r, 20.10m,0000000000Hz,0000600014c,0000001.302s,-014.6C,00002191
2022-01-24 23:23:11 r, 20.10m,0000000001Hz,0000599032c,0000001.300s,-014.6C,00002191
2022-01-24 23:33:09 r, 20.09m,0000000001Hz,0000596023c,0000001.293s,-014.2C,00002191
2022-01-24 23:43:09 r, 20.10m,0000000001Hz,0000600028c,0000001.302s,-013.9C,00002191
2022-01-24 23:53:12 r, 20.11m,0000000001Hz,0000602753c,0000001.308s,-013.6C,00002191
